This is the latest recevied weather packets stored in our database for station/object VK4HIT-13. If no packets are shown the sender has not sent any weather packets the latest 10 day(s).
| Time | Temp. | Humidity | Pressure | Rain* | Wind** | Luminosity | Snow |
|---|---|---|---|---|---|---|---|
| 1777863273 | 27.22° C | 54% | 1016.7 hPa | 0 mm | - | - | - |
| 1777862973 | 27.22° C | 54% | 1016.9 hPa | 0 mm | - | - | - |
| 1777862673 | 26.67° C | 54% | 1016.9 hPa | 0 mm | - | - | - |
| 1777862373 | 26.67° C | 53% | 1016.9 hPa | 0 mm | - | - | - |
| 1777862073 | 26.67° C | 53% | 1017 hPa | 0 mm | - | - | - |
| 1777861773 | 27.22° C | 54% | 1017 hPa | 0 mm | - | - | - |
| 1777861473 | 26.67° C | 52% | 1017.1 hPa | 0 mm | - | - | - |
| 1777861173 | 26.67° C | 56% | 1017.3 hPa | 0 mm | - | - | - |
| 1777860873 | 26.67° C | 56% | 1017.3 hPa | 0 mm | - | - | - |
| 1777860573 | 26.11° C | 58% | 1017.4 hPa | 0 mm | - | - | - |
| 1777860273 | 26.11° C | 60% | 1017.5 hPa | 0 mm | - | - | - |
| 1777859973 | 25.56° C | 62% | 1017.5 hPa | 0 mm | - | - | - |
| 1777859673 | 25.56° C | 62% | 1017.6 hPa | 0 mm | - | - | - |
| 1777859373 | 25° C | 64% | 1017.6 hPa | 0 mm | - | - | - |
| 1777859073 | 24.44° C | 68% | 1017.8 hPa | 0 mm | - | - | - |
| 1777858773 | 23.89° C | 68% | 1018 hPa | 0 mm | - | - | - |
| 1777858473 | 23.89° C | 69% | 1018.2 hPa | 0 mm | - | - | - |
| 1777858173 | 23.89° C | 69% | 1018.3 hPa | 0 mm | - | - | - |
| 1777857873 | 23.89° C | 69% | 1018.4 hPa | 0 mm | - | - | - |
| 1777857573 | 23.89° C | 67% | 1018.4 hPa | 0 mm | - | - | - |
| 1777857273 | 23.89° C | 71% | 1018.4 hPa | 0 mm | - | - | - |
| 1777856973 | 23.33° C | 72% | 1018.6 hPa | 0 mm | - | - | - |
| 1777856673 | 23.33° C | 72% | 1018.6 hPa | 0 mm | - | - | - |
| 1777856373 | 23.33° C | 72% | 1018.6 hPa | 0 mm | - | - | - |
| 1777856073 | 23.33° C | 73% | 1018.8 hPa | 0 mm | - | - | - |
* Rain latest hour (hover to see other rain measurements)
** Current wind speed in m/s (hover to see current wind gust speed)